This demonstration page uses our WeatherBlox Daily Observations layout. Learn more.

Left ArrowRight Arrow

41.55636, -103.73856

Hourly Observations for October 12, 2021

Temp ( °F °C ) Dew Point ( °F °C ) Humidity (%) Winds ( mph kmh ) Pressure ( in mb ) Visibility ( mi km ) Precip ( " mm )
12:58 am 00:58 Clear 45 7.4 28 -2.3 51 51 E 13 20 29.75 1008 10 16 0.00 0.00
1:58 am 01:58 Mostly Cloudy 45 7.3 30 -1.3 55 55 E 16 26 29.75 1007 10 16 0.00 0.00
2:58 am 02:58 Mostly Cloudy 45 7 31 -0.5 59 59 E 20 31 29.72 1006 10 16 0.00 0.00
3:58 am 03:58 Mostly Cloudy 45 7.2 32 -0.1 60 60 E 17 28 29.70 1006 10 16 0.00 0.00
4:58 am 04:58 Clear 44 6.9 32 -0.1 61 61 E 14 22 29.70 1006 10 16 0.00 0.00
5:58 am 05:58 Mostly Clear 42 5.8 32 0.2 68 68 E 14 22 29.71 1006 10 16 0.00 0.00
6:58 am 06:58 Mostly Cloudy 43 6.2 33 0.4 67 67 E 14 22 29.71 1006 10 16 0.00 0.00
7:58 am 07:58 Mostly Cloudy 43 6.3 35 1.6 72 72 E 10 17 29.71 1006 10 16 0.00 0.00
8:58 am 08:58 Mostly Cloudy with Light Showers 43 5.9 39 4.1 88 88 ENE 7 11 29.70 1006 10 16 0.01 0.25
9:58 am 09:58 Mostly Cloudy 46 7.5 42 5.6 88 88 E 15 24 29.67 1005 10 16 0.00 0.00
10:58 am 10:58 Mostly Cloudy 50 9.9 43 6 77 77 ESE 17 28 29.64 1004 10 16 0.00 0.00
11:58 am 11:58 Mostly Cloudy 56 13.6 43 6.2 61 61 ESE 15 24 29.62 1003 10 16 0.00 0.00
12:58 pm 12:58 Mostly Cloudy 59 15 44 6.6 57 57 E 17 28 29.60 1002 10 16 0.00 0.00
1:58 pm 13:58 Mostly Cloudy 58 14.7 44 6.8 59 59 ENE 13 20 29.57 1001 10 16 0.00 0.00
2:58 pm 14:58 Mostly Cloudy 58 14.4 45 7 61 61 NNE 17 28 29.54 1000 10 16 0.00 0.00
3:58 pm 15:58 Mostly Cloudy 50 9.9 41 5.2 73 73 WNW 22 35 29.57 1001 10 16 0.00 0.00
4:58 pm 16:58 Windy with Rain Showers Likely 43 6 41 5.2 95 95 NW 22 35 29.59 1002 5 8 0.10 2.54
5:58 pm 17:58 Cloudy 40 4.6 39 3.8 95 95 NW 17 28 29.64 1004 10 16 0.00 0.00
6:58 pm 18:58 Mostly Cloudy with Showers 38 3.2 37 2.6 96 96 NW 18 30 29.64 1004 6 10 0.21 5.33
7:58 pm 19:58 Cloudy with Showers 36 2.2 35 1.7 97 97 WNW 24 39 29.74 1007 8 13 0.13 3.30
8:58 pm 20:58 Mostly Cloudy with Light Showers 35 1.4 34 0.9 97 97 NNW 17 28 29.61 1003 10 16 0.05 1.27
9:58 pm 21:58 Cloudy 36 2.1 34 1.2 94 94 NW 8 13 29.58 1002 10 16 0.00 0.00
10:58 pm 22:58 Windy with Snow Showers Likely 33 0.4 32 -0.1 96 96 W 21 33 29.56 1001 8 13 0.09 2.29
11:58 pm 23:58 Windy with Snow Showers Likely 31 -0.4 30 -1.2 94 94 WNW 31 50 29.54 1000 3 5 0.07 1.78

Powered by AerisWeather